Regional Weather Roundup
Issued by NWS Charleston, SC

Current Version | Previous Version | Graphics & Text | Print | Product List | Glossary On
Versions: 1 2 3 4 5 6 7 8 9 10 11 12 13 14 15 16 17 18 19 20 21 22 23 24 25 26 27 28 29 30 31 32 33 34 35 36 37 38 39 40 41 42 43 44 45 46 47 48 49 50
000
ASUS42 KCHS 041112
RWRCHS

REGIONAL WEATHER ROUNDUP
NATIONAL WEATHER SERVICE CHARLESTON SC
700 AM EDT MON MAY 04 2015

NOTE: "FAIR" INDICATES FEW OR NO CLOUDS BELOW 12,000 FEET WITH NO
SIGNIFICANT WEATHER AND/OR OBSTRUCTIONS TO VISIBILITY.

NOT ALL STATIONS ARE QUALITY CONTROLLED BY THE NATIONAL
WEATHER SERVICE. USE DATA WITH CAUTION...ESPECIALLY
DEWPOINT OBSERVATIONS.

SCZ027-030-031-034>040-042>050-041200-
...SOUTHEAST SOUTH CAROLINA...

CITY           SKY/WX    TMP DP  RH WIND       PRES   REMARKS
N CHARLESTON   PTCLDY    59  58  96 CALM      30.28R
WATERFRONT PRK   N/A     66 N/A N/A N3          N/A
MOUNT PLEASANT FAIR      57  55  94 MISG      30.28R FOG
PINOPOLIS      NOT AVBL
MONCKS CORNER  FAIR      57  55  94 CALM      30.28R
SUMMERVILLE    FAIR      55  55 100 CALM      30.29R
BEAUFORT MCAS  PTCLDY    59  57  93 CALM      30.27R FOG
BEAUFORT ARPT  PTSUNNY   61  61 100 CALM      30.26R
HILTON HEAD IS PTCLDY    64  63  94 NE3       30.27R
WALTERBORO     PTSUNNY   55  54  94 CALM      30.28R
ALLENDALE      PTSUNNY   54  54 100 CALM      30.26R FOG

...SOUTHERN MIDLANDS AND PEE DEE...

CITY           SKY/WX    TMP DP  RH WIND       PRES   REMARKS
GEORGETOWN     NOT AVBL
KINGSTREE      NOT AVBL
ORANGEBURG     CLOUDY    57  54  89 CALM      30.28R
BARNWELL       FAIR      54  52  94 CALM      30.28R
AIKEN          FAIR      50  46  87 CALM      30.30R
MANNING        FAIR      52  48  87 CALM      30.28R
COLUMBIA       PTCLDY    55  49  80 CALM      30.27R
SUMTER         PTCLDY    57  55  92 CALM      30.27R
FLORENCE       CLEAR     55  54  96 CALM      30.28R FOG
MYRTLE BEACH   NOT AVBL
N MYRTLE BEACH CLEAR     55  54  96 CALM      30.28R FOG

$$

GAZ063-065-086>088-099>101-113>116-118-119-134>141-150-041200-
...SOUTHEAST GEORGIA...

CITY           SKY/WX    TMP DP  RH WIND       PRES   REMARKS
SAVANNAH ARPT  PTCLDY    55  53  93 CALM      30.26R
HUNTER AAF     CLEAR     57  57 100 CALM      30.23R
FORT STEWART   CLEAR     52  50  92 CALM      30.23R
STATESBORO       N/A     52  52 100 CALM      30.26R
SYLVANIA       SUNNY     52  52 100 CALM      30.27R
CLAXTON        FAIR      50  50 100 CALM      30.26R

...CSRA...CENTRAL AND FAR SOUTHEAST GEORGIA...

CITY           SKY/WX    TMP DP  RH WIND       PRES   REMARKS
THOMSON        CLEAR     55  55 100 CALM      30.31R
AUGUSTA-BUSH   CLEAR     50  49  96 CALM      30.26R
AUGUSTA-DANIEL CLEAR     60  50  69 SE5       30.27R
SWAINSBORO     NOT AVBL
VIDALIA        CLEAR     54  54 100 CALM      30.25R
EASTMAN        FOG       51  51 100 CALM      30.27R VSB<1/4
HAZLEHURST     FAIR      56  55  96 CALM      30.24R
ALMA           CLEAR     51  51 100 CALM      30.24R FOG
WAYCROSS       CLEAR     56  55  97 CALM      30.23R
JESUP          FAIR      52  52 100 CALM      30.25R
BAXLEY         FAIR      54  54 100 CALM      30.24R
BRUNSWICK      CLEAR     54  52  94 CALM      30.24R
SAINT SIMONS   CLEAR     59  56  89 CALM      30.23R

$$

SCZ027-028-034-036>038-045-046-048>050-GAZ119-141-041200-
...LAKE AND SUPPLEMENTAL COASTAL OBSERVATIONS...

STATION/POSITION TIME  TEMP    WIND        PRES    WAVE   SWELL
                       AIR SEA DIR/SP/G            HT/PER HT/PER/DIR
                 (UTC) (F)     (DEG/KT/KT) (MB)    (FT/S) (FT/S/D)
UPR LAKE MARION  NOT AVBL
WINYAH BAY       NOT AVBL
LAKE MURRAY      1000   63     120/  2/  7 1023.4R
ACE BASIN NERRS  NOT AVBL
FORT PULASKI     1000   65 69   CALM  /  1 1024.1R
SAPELO ISLAND    1000   59      40/  2     1023.0S

$$

ANZ835-935-AMZ111-154-330-350-352-354-370-450-454-472-041200-
...C-MAN AND BUOY OBSERVATIONS...

STATION/POSITION TIME  TEMP    WIND        PRES    WAVE   SWELL
                       AIR SEA DIR/SP/G            HT/PER HT/PER/DIR
                 (UTC) (F)     (DEG/KT/KT) (MB)    (FT/S) (FT/S/D)
BUOY 41004       1050   72 74  110/  4/  6 1024.6R   3/11   2/11
BUOY 41008       1050   70 69   60/  6/  8 1024.1R   2/13   2/ 80/13
FOLLY BEACH CMAN 1100   67      20/  3/  3 1025.1R
CAPERS NEARSHORE 1008   69     130/  2/  4 1024.2R
FRIPP NEARSHORE  1000   68      70/  4/  6 1023.1R


STATION/POSITION TIME  TEMP    WIND        PRES    WAVE   SWELL
                       AIR SEA DIR/SP/G            HT/PER HT/PER/DIR
                 (UTC) (F)     (DEG/KT/KT) (MB)    (FT/S) (FT/S/D)
5E ST. MARYS GA  1021      71                N/A     2/12   2/ 80/12
FRYING PAN BUOY  1050   73 72  180/  6/  8 1026.1R   3/13   3/ 90/13
BUOY 41025       1050   65     320/  6/  6 1025.7R   5/10   5/ 60/10
CAPE LOOKOUT NC  1100   67     290/  3/  3 1025.6R
BUOY 41002       1050   68 69   60/ 10/ 14 1025.8R   6/11   5/ 30/11
BUOY 41010       1020   72 78   80/ 16/ 19 1022.7R
ST AUGUSTINE FL  1100   71 71   20/ 10/ 11 1023.8R


$$


USA.gov is the U.S. government's official web portal to all federal, state and local government web resources and services.